RH
41 40 37 35 36 43 55 69 79 84 85 83 80 76 72 69 68 68 69 70 69 69 68 67 65 64 63 62 61 60 58 57 56 55 55 53 52 51 49 48 46 44 42 40 38 36 34 31 30 28 26 25 23 22 21 20 19 18 18 18 18 18 18 16 16 18 19 19 17 19 21 21 21 21 21 21 21 21 21 22 22 21 23 27 26 32 33 25
42 42 41 39 37 35 36 42 52 64 73 78 80 78 75 71 67 64 63 63 62 61 60 59 57 56 55 54 53 53 52 51 50 50 49 47 45 44 42 39 37 34 32 30 28 26 25 24 22 21 20 20 19 18 18 17 17 16 16 16 17 17 14 13 15 16 16 15 15 16 19 19 17 17 18 18 17 18 18 18 19 17 20 26 27 35 35 27
38 40 41 41 40 38 36 35 35 39 46 54 61 66 69 71 70 69 67 65 63 60 57 54 52 49 47 46 44 44 43 42 42 42 41 40 39 37 35 34 32 30 29 28 27 26 25 24 23 22 22 22 21 21 21 19 19 18 18 19 19 16 15 15 16 16 17 17 17 17 19 17 16 16 16 16 16 15 15 15 16 14 15 18 22 31 32 32
30 33 36 38 39 39 39 37 36 34 34 35 37 42 48 53 58 61 65 66 65 63 61 58 55 52 49 47 46 44 43 43 43 43 43 42 41 41 40 39 37 35 34 34 32 31 30 29 28 27 26 26 25 24 24 23 22 21 21 21 19 17 18 18 18 19 20 20 20 19 19 18 17 17 17 18 17 16 16 16 15 14 16 16 23 32 33 32
26 27 29 31 33 35 36 37 37 36 35 34 33 32 32 34 36 39 42 46 48 50 50 51 50 49 49 48 47 46 46 47 47 47 47 46 46 46 46 44 42 40 39 38 36 34 32 31 30 29 28 27 26 26 25 25 25 24 23 22 20 20 21 20 21 22 22 22 21 20 20 20 19 19 19 19 18 19 17 17 17 14 15 16 23 29 27 25
25 24 25 25 27 28 30 32 33 34 34 34 34 33 32 31 30 29 29 29 29 30 30 31 32 32 32 32 32 33 33 34 35 35 36 35 35 35 35 33 32 31 29 28 27 25 24 23 22 21 20 20 21 21 22 24 24 24 24 23 23 23 23 23 24 24 23 23 22 22 22 21 21 20 19 20 19 19 18 20 17 17 23 24 26 28 23 21
33 29 27 25 24 24 25 26 27 28 29 30 31 31 31 31 30 29 28 27 26 25 24 23 23 22 22 22 22 22 21 22 21 21 21 21 21 21 20 20 19 19 18 17 16 16 15 14 14 14 14 14 15 16 17 19 19 20 21 21 23 23 23 23 23 22 22 22 21 21 21 20 21 19 20 20 19 19 20 19 17 25 41 41 36 32 26 25
45 41 37 33 29 26 25 24 25 25 25 26 26 27 27 27 27 27 26 25 24 23 23 22 21 21 21 21 20 20 20 19 19 18 18 18 18 17 17 17 16 16 15 15 15 14 14 14 14 14 14 15 16 17 17 17 16 17 18 18 19 18 19 19 19 20 19 19 20 20 20 20 20 20 21 20 19 20 20 20 19 21 31 35 33 26 25 39
59 53 48 45 40 36 31 28 26 25 25 25 25 25 25 25 24 24 24 23 23 22 22 22 21 21 20 20 19 19 18 18 18 18 18 18 18 18 18 18 18 18 18 18 19 19 19 20 21 21 22 24 24 23 23 21 20 20 19 19 19 18 19 19 19 19 19 19 19 19 20 20 21 21 21 21 21 21 21 21 20 23 26 27 36 42 46 58
78 69 62 59 57 54 48 43 39 35 32 29 28 26 25 24 24 23 23 22 22 22 21 21 21 20 20 19 18 19 20 21 23 24 25 26 27 27 28 28 29 29 30 30 31 31 32 33 33 33 32 32 30 28 27 24 22 22 21 19 19 19 18 18 18 18 18 18 18 18 19 19 20 20 21 21 20 21 22 19 23 38 37 28 45 61 64 61
100 94 86 80 78 75 71 66 61 55 49 43 38 34 31 30 28 27 27 26 26 25 25 25 25 26 28 29 31 33 34 37 39 41 43 44 44 44 45 45 45 44 44 44 43 42 41 39 37 34 31 29 27 25 23 22 21 20 18 18 18 17 17 17 17 16 16 16 17 17 17 18 18 18 19 19 20 20 20 19 21 30 28 25 40 51 55 55
113 113 109 104 99 92 87 83 78 71 64 58 53 49 46 43 41 40 40 40 41 42 43 44 46 49 52 54 55 55 55 57 59 60 61 60 59 58 57 56 54 52 49 46 43 40 36 33 30 27 26 25 24 24 23 22 22 22 21 21 20 20 20 20 20 19 19 19 20 19 19 19 18 18 18 18 19 17 18 20 18 19 20 24 36 47 49 47
115 117 115 111 108 104 101 98 94 89 83 79 74 70 66 64 64 65 66 66 67 70 72 74 77 76 73 71 69 69 69 69 69 69 68 66 63 60 57 53 48 44 40 36 34 31 29 28 27 27 27 28 28 29 29 29 28 28 28 26 25 25 24 25 26 25 24 23 24 24 23 23 20 20 19 19 19 18 18 17 17 19 16 24 48 64 57 43
114 114 111 107 105 105 106 105 105 106 106 102 97 92 88 87 88 88 88 87 88 91 92 91 89 83 77 75 75 75 75 72 70 67 62 57 52 47 43 39 36 33 32 31 31 31 32 32 32 33 34 36 37 38 38 38 36 35 35 33 32 31 28 30 31 29 28 27 29 29 27 26 22 22 22 21 20 20 20 18 19 18 18 36 56 58 47 36
113 112 110 106 105 105 105 106 108 112 116 114 108 103 99 99 98 97 96 96 98 98 94 88 85 82 79 77 76 74 71 65 59 53 47 42 38 36 34 33 33 33 34 35 36 38 39 40 41 42 43 45 45 47 48 47 45 43 41 38 39 37 32 36 37 32 31 32 34 33 31 29 23 23 24 22 23 22 21 21 21 19 28 46 48 38 32 30
106 108 108 106 106 106 105 108 112 112 114 113 107 102 102 102 100 100 100 102 104 100 90 82 80 78 75 71 67 62 56 49 44 39 36 35 35 35 36 38 40 42 44 45 47 48 48 49 50 51 53 54 55 56 56 55 54 53 50 47 48 44 36 44 46 35 36 40 41 40 40 38 27 25 28 25 26 27 24 24 23 21 27 32 30 27 28 34
83 91 97 101 103 104 104 107 111 110 109 109 105 103 105 106 104 104 104 104 102 94 82 74 71 67 61 56 50 45 41 38 36 36 36 37 39 42 45 49 52 54 56 57 57 57 58 61 62 63 64 64 65 65 64 63 62 60 60 57 57 52 43 51 50 40 46 50 48 50 55 53 34 28 36 33 32 36 32 28 28 27 26 28 30 28 35 57
58 65 72 79 88 97 100 99 101 104 104 104 102 102 103 103 100 97 92 88 82 74 66 60 56 51 45 41 39 37 37 38 39 40 43 45 48 52 56 60 62 63 65 65 66 67 69 72 73 73 71 71 73 73 72 70 67 66 66 65 65 61 56 55 51 54 61 56 55 63 69 63 46 44 55 48 41 46 45 37 35 35 33 39 43 40 51 80
43 47 51 56 63 74 84 86 86 88 90 92 91 90 89 86 82 76 70 65 59 53 49 46 42 40 37 36 38 40 42 44 45 48 50 53 56 59 63 68 69 70 71 72 73 74 76 78 78 76 75 76 76 75 76 75 73 71 69 71 70 68 67 57 55 70 73 66 67 71 76 78 66 63 71 66 57 58 58 49 43 42 41 42 43 45 57 81
38 40 41 43 46 51 60 66 66 68 70 71 71 71 69 64 59 56 53 50 47 43 42 41 42 42 43 43 45 49 52 52 53 54 55 58 61 62 65 70 74 76 76 76 77 77 78 78 76 75 74 75 74 72 74 75 76 75 75 76 74 76 75 59 60 77 77 74 75 71 84 96 83 75 82 85 78 70 67 61 54 53 52 48 43 43 47 60
40 40 40 40 40 41 44 47 49 52 54 54 54 54 51 48 46 46 46 45 45 45 46 48 51 53 53 55 56 58 59 59 58 58 59 62 64 64 66 70 74 76 77 78 79 78 78 76 73 73 73 71 69 67 68 69 70 72 74 75 78 84 80 68 72 80 78 82 80 74 90 102 93 89 94 95 87 77 74 73 70 66 65 60 51 46 43 48
49 47 45 44 43 43 41 42 43 44 45 47 47 47 46 46 48 49 50 53 55 55 57 61 62 63 64 66 67 65 63 61 61 61 63 67 67 69 69 69 71 73 76 77 77 78 76 71 71 74 71 67 66 64 63 63 63 66 68 71 78 83 78 76 78 75 79 89 84 81 94 101 96 93 93 93 86 78 82 88 86 81 82 79 66 56 51 53
61 58 57 56 54 53 50 48 48 49 52 53 50 52 57 61 66 69 70 73 74 71 71 74 73 72 74 77 76 71 65 62 62 65 70 73 75 78 77 76 79 80 79 76 76 78 71 67 74 75 69 67 65 62 60 59 59 60 62 66 72 73 71 73 68 66 78 83 77 82 92 95 93 91 92 99 97 86 89 96 93 90 92 90 82 71 62 58
74 70 73 74 72 69 67 66 67 67 67 65 66 73 80 85 91 94 93 92 91 88 85 83 80 80 84 86 86 82 77 71 68 71 76 78 80 84 84 88 91 88 83 79 78 74 65 67 75 72 68 67 63 59 56 54 54 56 57 60 63 62 62 62 59 63 74 75 74 77 82 84 82 82 86 95 100 92 88 92 92 94 96 95 94 87 73 65
82 82 88 91 90 91 91 91 93 90 85 84 92 98 98 102 107 107 107 105 100 97 95 91 87 87 90 93 96 97 92 85 81 83 85 83 83 87 90 93 91 85 83 83 79 69 63 69 71 67 68 66 61 59 56 53 53 56 59 58 57 57 59 60 59 64 68 70 73 70 71 77 72 71 76 80 87 85 81 83 87 92 98 98 99 98 89 78
84 87 100 104 102 102 103 105 107 104 98 100 109 109 103 106 112 112 112 111 106 102 101 99 96 95 95 98 104 106 102 96 94 96 96 90 89 91 91 90 86 81 82 83 78 68 64 69 69 66 69 67 63 61 59 59 59 64 69 63 60 65 70 70 67 73 77 73 74 73 70 71 71 73 74 71 73 75 73 73 76 81 89 92 91 95 97 92
92 93 106 109 103 103 104 106 109 107 101 103 110 108 101 101 107 111 111 110 108 106 106 107 105 101 100 102 107 109 106 103 100 101 100 93 90 91 87 87 85 80 82 84 77 69 67 70 70 69 70 69 66 61 59 62 62 70 78 69 64 70 78 83 81 85 91 81 78 83 78 75 85 88 75 67 69 68 69 72 70 72 78 80 79 83 91 94
102 105 110 107 100 102 106 105 107 106 101 102 109 109 100 91 93 103 107 106 106 106 106 108 105 103 104 105 107 109 107 103 101 102 101 95 91 89 84 83 81 76 79 79 71 68 67 69 73 74 75 72 68 64 64 64 62 67 74 71 70 73 78 88 91 93 96 86 83 91 86 85 101 104 87 81 81 73 76 81 73 68 70 74 79 84 90 93
107 107 104 103 102 102 104 102 104 108 103 101 109 111 103 89 82 87 90 90 92 93 93 93 94 95 98 100 101 103 104 101 99 98 96 90 85 80 75 71 69 67 69 67 63 62 60 60 63 66 68 67 66 70 74 71 66 66 70 72 77 79 78 82 89 97 96 84 88 100 96 90 102 109 99 93 95 91 88 86 82 82 78 78 90 96 98 99
110 108 102 101 102 102 103 101 101 106 105 103 107 109 106 96 85 81 77 74 74 76 73 71 74 76 77 80 81 84 88 86 83 81 79 75 71 69 67 65 65 65 65 65 63 62 59 56 54 53 55 55 57 66 76 77 76 77 75 77 83 85 83 80 82 93 93 85 93 105 100 90 93 107 106 92 91 97 90 78 82 95 92 88 97 102 102 106
107 109 109 107 104 103 105 106 103 103 102 101 103 106 107 104 97 92 87 82 81 80 76 73 72 70 67 66 66 66 67 66 66 66 66 67 67 66 67 67 69 70 70 70 68 65 62 59 56 55 54 52 52 55 61 68 75 79 78 83 91 88 80 76 78 85 92 94 97 97 90 82 87 102 105 92 84 88 87 77 79 91 93 91 98 104 104 107
108 107 106 107 107 107 109 110 108 105 104 102 102 105 108 107 105 103 100 98 98 95 90 88 86 83 79 74 70 65 61 61 61 63 66 67 68 70 72 75 76 77 77 76 72 69 67 64 63 63 60 57 56 54 53 57 62 65 68 77 91 93 79 76 86 91 93 95 90 84 77 73 84 95 96 100 97 86 83 81 80 86 87 86 91 99 103 105
107 112 111 107 104 105 108 111 112 110 109 106 105 107 107 105 104 104 103 102 101 98 93 93 93 92 90 86 82 73 67 66 63 63 68 70 71 74 76 80 83 82 81 80 77 74 72 69 66 65 64 61 60 58 56 56 54 53 58 68 82 89 77 72 92 101 96 90 79 74 74 75 91 102 100 108 109 96 91 88 83 84 84 82 85 90 94 96
78 97 108 110 109 107 107 109 111 112 113 110 108 109 109 108 106 105 105 105 103 98 93 93 94 94 93 92 91 83 76 73 69 69 72 73 79 83 82 84 86 85 85 84 81 79 77 74 67 63 65 65 63 62 60 58 55 51 56 63 68 72 64 60 76 89 91 85 72 70 78 84 97 109 109 109 106 100 99 93 85 82 83 83 84 85 87 87
44 59 75 88 99 107 111 111 109 109 111 111 110 110 110 110 110 108 108 108 107 100 95 96 98 99 99 98 97 93 87 84 79 78 81 83 88 92 93 91 87 84 87 89 87 85 84 78 68 61 60 61 63 64 62 60 58 55 55 58 61 64 60 55 60 70 76 73 67 71 81 86 91 100 105 106 105 105 100 92 87 85 86 88 86 86 86 85
33 35 42 52 64 79 93 103 107 107 108 108 109 111 110 110 111 111 109 108 108 106 104 102 102 106 107 101 95 94 96 97 92 87 90 94 94 95 97 94 89 83 84 89 92 90 86 78 69 64 60 58 59 62 62 60 60 60 59 61 66 67 61 55 58 64 67 64 66 74 81 87 93 92 91 94 99 103 99 89 86 86 87 88 85 82 82 80
41 38 35 34 37 45 55 69 81 90 97 102 106 108 109 111 113 112 111 110 109 110 109 107 105 108 110 104 94 90 94 102 103 98 94 94 91 91 94 94 90 84 82 86 90 90 87 80 72 66 64 64 62 60 61 62 61 63 67 70 73 73 68 63 62 64 65 64 70 76 78 88 97 88 80 84 86 87 86 81 79 81 81 79 78 76 74 74
41 42 43 42 38 34 35 40 47 56 67 77 86 94 98 103 107 109 112 112 110 111 111 110 108 107 107 108 103 94 93 101 104 102 100 97 92 88 89 91 90 88 86 85 84 86 87 82 74 67 67 69 67 64 62 64 70 75 79 82 81 82 83 80 77 78 77 75 78 84 83 86 93 86 77 80 78 72 72 72 72 74 73 71 71 69 67 66
39 37 40 45 46 44 40 36 35 37 42 48 55 62 70 77 85 91 97 100 102 106 109 108 109 110 108 107 106 100 99 103 104 105 106 103 99 93 88 87 91 93 92 88 85 86 85 80 76 73 73 74 73 73 71 75 88 89 84 90 97 96 94 93 94 96 95 93 92 93 91 88 89 86 80 80 77 69 67 66 66 66 66 65 65 63 61 60
46 41 38 39 41 46 48 46 43 39 36 38 40 41 44 49 54 60 65 72 78 83 89 91 97 104 104 102 104 103 101 101 100 104 106 101 99 96 88 86 90 93 94 91 84 82 81 80 82 80 82 88 85 79 80 88 98 94 85 94 105 105 101 97 96 95 95 99 97 90 88 86 83 79 76 74 71 67 64 60 59 59 58 59 59 57 57 56
47 46 47 45 39 37 42 45 48 49 47 44 40 37 37 38 39 40 43 48 53 57 62 67 74 81 84 86 91 90 87 87 86 88 92 90 85 81 78 80 82 82 86 88 79 77 82 87 91 88 89 100 97 83 84 93 96 95 96 100 103 104 104 100 96 94 92 92 88 81 79 79 77 75 73 68 63 61 59 56 54 54 54 55 56 55 55 54
50 48 52 53 46 41 40 37 39 50 56 54 48 44 43 42 40 41 41 40 40 42 43 47 52 57 63 72 77 76 75 78 79 77 76 73 68 67 73 77 75 75 83 85 75 77 88 91 93 93 90 99 100 90 95 100 94 93 99 103 103 102 103 101 97 96 91 85 80 77 73 70 73 77 76 70 65 62 59 57 56 55 54 54 54 54 54 52
55 54 55 54 51 49 48 42 37 41 44 49 59 59 52 47 44 45 48 47 45 44 42 41 41 42 44 51 57 62 65 68 72 76 76 67 61 69 78 77 77 80 85 86 78 83 95 91 87 92 93 99 101 95 100 107 98 91 96 101 99 97 101 100 94 90 87 81 78 75 72 69 69 72 73 72 68 65 63 61 59 56 54 52 50 49 48 46
60 58 61 61 56 53 52 50 49 46 38 38 49 54 54 58 58 53 51 52 52 53 54 51 47 46 45 43 45 47 49 52 58 66 71 63 57 68 77 76 79 79 81 89 88 90 99 94 88 94 97 102 105 98 101 110 103 92 92 94 92 96 100 95 89 87 81 78 78 72 69 71 70 70 74 75 71 66 63 60 57 54 50 47 45 43 41 39
74 65 64 67 66 62 57 53 55 57 51 45 41 38 44 56 63 64 62 59 56 55 58 59 60 63 61 55 55 53 49 50 52 53 58 56 50 59 69 69 71 70 74 86 87 86 96 95 92 98 100 102 108 106 105 108 102 91 88 89 91 94 96 91 87 84 75 73 74 67 65 73 73 70 72 72 68 62 58 54 51 48 44 41 39 37 35 34
92 84 75 71 69 69 68 63 60 58 57 58 52 44 41 41 44 56 64 66 67 67 65 62 63 69 69 67 71 72 65 63 63 59 59 58 49 51 62 65 61 62 70 77 76 77 87 90 90 98 104 106 109 108 106 103 98 92 90 92 93 90 92 92 87 81 77 73 66 64 72 79 75 68 66 65 61 56 51 47 44 42 39 38 36 35 34 33
91 95 93 85 75 72 75 76 73 65 61 62 58 54 55 48 40 42 44 51 67 78 75 72 71 71 69 66 68 73 72 70 72 70 69 70 61 57 67 68 58 59 67 69 70 74 78 83 90 95 100 105 108 107 106 103 101 97 95 97 94 90 93 94 87 84 84 76 71 79 87 83 75 69 63 59 55 50 45 41 38 37 35 34 34 34 35 36
72 81 91 95 89 81 80 82 81 76 72 68 61 58 61 59 54 51 44 40 47 55 60 69 79 81 80 78 74 72 70 64 64 66 67 69 65 62 73 76 65 65 69 67 70 76 76 78 86 92 94 99 105 108 108 107 104 99 99 103 100 93 94 95 91 91 90 80 81 94 94 82 77 73 65 57 51 45 42 39 36 35 33 32 31 33 36 41
61 66 74 85 91 92 90 87 83 80 79 77 71 67 65 61 59 61 61 56 50 45 42 47 56 62 72 84 86 83 81 77 74 73 71 71 65 58 64 71 67 66 71 72 71 76 81 79 79 87 91 92 99 106 107 110 109 101 95 99 101 96 93 94 97 102 102 94 90 94 92 84 77 69 60 54 46 39 38 37 36 35 33 32 33 35 40 44
61 64 67 72 80 89 95 94 88 82 79 79 78 78 76 71 64 61 63 65 62 59 56 51 46 43 47 55 58 62 72 80 83 85 88 92 87 74 69 74 74 68 73 79 72 69 82 84 78 81 82 82 95 105 105 105 101 90 82 86 96 99 95 94 98 104 110 108 101 94 86 76 68 61 54 48 43 40 39 40 39 38 36 36 36 37 41 45
67 69 70 71 75 82 91 96 96 88 79 77 79 81 81 78 73 70 68 65 61 63 66 63 60 58 54 48 43 43 46 50 54 60 69 78 81 77 77 83 87 84 86 93 85 77 83 84 79 77 72 72 86 93 89 85 77 69 72 81 91 96 96 99 104 106 106 103 97 85 70 59 55 52 48 45 43 42 43 45 44 41 39 37 37 38 40 44
69 72 74 75 77 81 86 91 96 93 86 83 81 78 78 78 76 76 76 72 67 67 68 65 63 65 63 57 58 60 54 47 45 43 43 47 48 49 53 60 68 72 76 81 83 87 94 92 89 89 82 79 89 93 85 76 69 72 82 90 93 95 100 105 105 100 91 80 71 61 51 47 43 41 42 45 45 44 44 43 42 41 43 45 47 50 50 50
Wind_Speed
75 75 76 76 76 77 77 78 78 79 79 79 80 80 81 82 83 84 85 86 87 89 90 91 92 92 93 94 95 95 96 96 97 98 98 99 99 100 100 101 101 101 102 102 102 101 101 101 101 101 100 100 100 99 99 99 99 99 99 98 99 99 101 101 100 100 101 104 103 98 97 100 101 101 101 102 104 104 103 102 103 104 99 94 96 95 97 101
74 75 76 76 76 77 77 78 78 79 79 79 80 80 80 80 81 82 83 84 85 86 87 88 89 90 91 92 93 93 94 94 95 95 96 96 97 97 97 98 98 98 98 97 97 96 96 96 96 96 95 95 95 94 94 94 94 95 94 94 95 96 98 96 95 96 97 99 98 95 95 97 98 98 98 100 101 101 100 100 101 102 95 90 92 93 95 98
73 74 75 76 76 77 77 77 78 79 79 79 80 80 80 80 80 80 80 81 82 83 84 85 85 86 87 88 88 89 89 89 90 90 91 91 91 91 91 92 92 91 91 90 90 90 90 90 91 91 90 90 90 90 90 90 91 91 91 91 93 94 94 92 92 93 94 94 94 93 94 95 95 94 95 96 97 98 98 98 99 98 94 90 90 90 91 92
71 72 74 75 76 76 77 77 78 78 78 78 79 79 79 79 79 79 79 80 80 81 81 82 82 82 83 83 83 84 84 84 84 84 85 85 85 85 86 86 86 86 86 86 86 87 87 87 88 88 88 88 88 88 88 88 88 88 88 89 91 90 90 90 90 90 90 91 92 92 93 93 93 92 92 92 93 94 95 95 96 94 89 88 85 84 85 86
67 69 71 73 74 75 76 76 77 77 77 77 77 77 78 78 78 78 78 79 79 80 80 80 80 80 80 81 81 81 81 80 81 81 82 82 82 82 83 84 84 84 84 84 85 85 85 86 86 86 87 87 86 87 85 85 86 86 87 88 88 87 87 87 86 87 88 89 90 90 91 91 90 90 89 89 89 90 91 91 92 90 86 85 82 83 85 85
63 65 67 69 71 72 73 75 75 76 76 76 76 76 76 76 76 76 77 77 77 78 78 78 78 78 78 79 78 78 78 78 78 79 79 80 80 80 81 81 81 81 81 81 81 82 82 82 83 83 84 83 83 83 82 83 84 84 85 85 84 84 84 84 84 85 86 87 87 87 88 88 88 88 86 87 87 86 87 87 88 84 79 79 79 83 85 84
60 62 63 65 67 69 70 71 72 73 73 74 74 74 74 74 74 74 75 75 75 76 76 76 76 75 76 76 76 75 75 75 75 75 76 76 76 77 77 77 77 77 77 77 77 77 77 78 78 78 78 78 78 79 79 80 81 81 81 81 81 82 81 82 82 83 83 84 84 84 85 85 86 85 84 85 84 83 84 85 84 76 70 72 74 77 80 83
56 58 60 61 63 65 66 67 68 69 70 70 71 71 71 72 72 72 72 73 73 73 73 73 73 73 73 72 72 72 71 71 71 71 72 72 73 73 73 73 73 73 73 73 73 73 73 72 72 72 72 72 72 73 74 76 76 76 77 77 77 78 78 78 78 79 80 80 80 81 82 82 82 82 82 83 82 80 81 82 80 74 72 72 72 73 77 81
53 55 56 58 59 60 61 63 64 64 65 66 67 67 68 68 68 68 69 69 69 70 70 69 69 70 69 69 69 68 68 67 67 67 67 67 68 68 68 68 68 68 68 68 68 67 67 67 67 67 66 66 67 68 69 70 70 71 71 72 72 73 73 73 75 76 76 76 77 78 78 78 79 79 80 80 78 77 79 79 75 71 72 71 66 67 73 77
50 51 53 54 55 56 57 58 58 59 60 61 62 63 63 64 64 64 64 65 65 65 65 65 65 65 64 64 63 63 63 62 61 61 61 61 61 61 61 61 61 61 61 62 62 62 62 62 62 62 62 63 64 64 65 66 66 67 67 68 68 68 69 70 71 72 72 73 74 75 75 75 77 77 78 78 77 76 77 77 71 64 65 68 63 64 73 79
48 48 50 51 52 53 53 53 54 55 56 57 57 58 58 59 59 59 59 59 59 59 59 59 59 59 58 58 57 56 56 55 55 54 54 55 55 55 56 56 56 57 57 58 58 58 58 59 59 60 60 60 61 61 62 62 62 63 63 63 64 63 64 65 66 67 67 68 68 70 71 72 74 74 74 76 76 76 74 74 72 68 68 70 67 70 77 80
47 47 48 49 50 50 51 51 51 52 53 53 53 53 53 53 53 53 53 53 53 53 53 53 53 53 52 52 51 51 51 50 50 51 51 52 52 53 53 54 54 55 55 55 56 56 56 56 57 57 57 57 57 56 56 56 56 56 57 57 57 57 57 58 59 60 60 61 62 64 65 67 69 69 70 72 73 73 72 71 72 70 69 68 66 69 74 75
47 47 47 47 48 48 48 48 49 49 50 49 49 49 49 49 49 48 48 49 48 48 49 49 49 49 49 49 49 49 49 49 49 50 50 51 52 52 53 53 53 53 53 53 53 53 53 53 53 52 52 51 50 50 50 49 49 49 50 50 50 50 50 50 51 52 53 53 54 57 58 61 63 63 64 66 66 67 68 68 68 67 65 62 59 63 69 73
48 47 47 47 47 47 47 47 47 48 47 47 47 46 46 46 46 46 46 46 46 46 47 47 47 47 48 48 49 49 49 49 49 50 51 51 51 52 52 51 51 51 51 50 50 49 49 49 47 46 45 44 43 43 43 43 43 43 44 44 44 45 44 43 45 47 47 46 48 51 53 56 58 56 58 59 59 60 61 62 62 61 60 56 55 61 67 70
48 48 48 48 47 47 47 47 47 47 46 46 46 45 45 45 45 45 45 46 46 46 47 47 47 48 48 49 49 49 50 49 49 50 50 50 50 50 49 49 48 48 47 46 45 45 44 43 42 41 40 40 39 38 38 38 39 38 39 40 39 42 39 38 42 43 42 41 43 47 48 52 53 49 51 52 52 54 54 55 55 55 52 48 52 59 61 63
50 50 49 49 48 47 47 47 47 46 46 45 45 45 45 45 45 45 45 46 47 47 47 48 48 48 48 49 50 49 49 49 48 48 48 48 47 47 46 45 44 43 43 42 41 41 40 39 38 38 37 37 36 36 36 36 36 36 36 36 37 39 35 34 39 39 37 38 41 43 44 48 49 44 46 46 46 48 48 48 49 49 48 46 49 51 50 53
51 51 50 50 49 48 47 47 47 47 46 45 45 45 45 45 45 46 46 47 47 48 48 48 49 48 48 49 49 48 48 47 47 46 46 45 44 44 43 42 41 40 40 39 39 38 38 37 37 37 36 36 35 35 35 35 35 35 35 34 36 37 33 33 36 35 34 36 38 39 41 45 45 39 41 42 41 43 44 44 43 43 44 43 44 42 41 43
52 52 51 51 50 49 48 48 48 48 47 46 46 46 46 46 46 47 47 47 47 48 48 48 48 47 47 48 47 47 46 46 45 44 43 43 42 42 41 40 40 39 39 38 38 37 37 37 37 37 36 36 36 36 36 36 36 35 35 35 36 36 34 33 32 31 34 36 35 37 39 43 42 37 38 41 39 40 41 41 40 40 40 37 37 36 35 36
52 52 51 51 51 50 49 49 49 49 48 47 47 47 47 47 47 47 47 47 47 47 47 47 47 46 46 46 45 45 45 44 43 42 42 42 41 41 40 40 40 40 39 39 38 38 37 38 38 37 37 37 38 38 38 38 38 37 37 37 37 37 37 34 30 31 35 35 34 35 38 41 41 37 38 40 39 39 40 41 39 38 39 37 36 34 32 34
50 51 51 51 51 50 50 50 50 49 49 48 48 48 48 48 47 47 46 46 46 46 46 45 45 45 45 44 44 44 44 43 42 42 42 41 41 40 40 40 40 40 40 39 39 39 38 39 38 38 38 39 40 40 40 40 40 40 39 39 39 39 41 36 31 34 37 36 36 35 37 41 41 39 39 40 40 40 40 41 40 39 40 39 38 36 34 36
48 49 49 50 50 50 50 49 49 49 49 48 48 47 47 47 46 46 45 45 45 45 44 44 44 43 43 43 43 43 43 42 42 42 41 41 41 41 41 41 41 41 41 41 40 40 41 40 38 39 41 41 41 41 41 42 42 42 42 41 41 42 43 39 37 38 38 38 39 37 38 42 42 41 41 42 43 41 41 42 42 42 41 42 40 38 35 34
45 46 47 47 48 48 48 48 48 48 47 47 46 46 46 45 44 44 43 43 43 43 42 42 42 42 42 42 43 43 43 43 42 42 41 42 41 41 42 41 41 42 42 42 41 41 42 39 38 41 42 41 41 42 42 42 43 43 43 43 44 45 44 43 42 41 40 42 42 39 41 44 43 43 44 45 44 43 43 44 45 44 44 44 43 40 37 34
42 44 44 45 45 46 46 46 46 45 45 45 45 44 43 42 42 42 42 41 42 42 41 41 41 41 40 41 43 43 43 43 43 42 42 42 42 42 42 42 42 43 43 43 42 43 41 37 39 42 41 41 42 42 42 42 42 43 43 44 45 46 45 46 45 42 43 45 43 42 44 45 45 45 45 46 47 46 44 45 46 46 46 46 45 44 41 38
40 41 41 42 43 43 43 43 43 43 43 43 43 42 41 40 40 41 41 41 41 41 40 41 40 40 40 41 42 42 42 43 42 42 42 42 42 42 42 42 43 43 43 43 43 43 40 37 40 42 41 42 42 42 42 41 41 42 43 43 45 45 45 46 44 43 45 46 45 45 46 47 48 47 47 48 49 49 47 47 48 47 48 48 47 47 45 43
39 39 39 40 41 41 41 40 41 42 42 42 41 41 41 40 41 41 41 41 41 40 40 40 39 39 39 40 41 42 42 42 41 41 42 42 42 42 42 43 43 43 42 43 44 42 38 38 41 40 41 42 41 41 40 40 40 40 42 42 42 42 43 44 43 43 45 45 46 47 46 48 49 48 49 50 50 50 49 49 49 49 49 49 49 49 48 47
38 38 39 39 40 40 40 40 41 41 40 41 41 41 41 40 41 42 42 42 41 40 40 40 39 39 39 39 41 42 42 41 41 41 42 41 41 41 42 42 42 41 41 42 43 40 37 38 40 39 40 41 40 40 39 39 39 38 40 40 39 39 40 41 41 41 43 44 44 45 46 47 48 48 50 50 50 51 51 50 50 49 50 51 50 50 50 49
38 38 39 40 40 40 40 41 41 41 41 42 41 41 41 41 42 42 43 43 41 40 40 39 39 39 39 40 41 42 42 41 41 41 42 41 40 41 40 40 40 39 39 41 41 38 36 38 39 39 40 41 40 39 38 39 38 37 40 40 38 38 38 39 39 39 42 42 41 43 44 44 44 48 50 49 49 50 50 50 50 49 50 51 51 50 50 50
38 39 40 41 41 41 42 42 42 41 42 42 42 42 41 41 42 43 44 43 41 41 41 40 40 40 40 41 42 42 42 42 41 41 41 40 39 39 38 38 38 37 39 41 40 37 37 37 38 39 40 40 40 39 39 40 39 38 40 40 39 39 38 38 39 39 41 41 39 41 42 40 41 46 47 46 47 47 46 48 49 48 48 49 49 49 50 50
40 40 41 43 43 43 43 43 43 43 43 43 43 43 43 42 43 44 45 43 42 43 42 41 40 40 41 41 41 42 42 42 41 40 40 39 39 39 38 38 38 38 40 41 40 39 39 38 39 39 40 40 39 39 40 41 40 39 40 40 41 41 40 40 39 41 43 40 39 41 42 40 40 44 46 44 45 45 44 45 44 45 45 45 46 48 49 49
43 43 43 44 44 44 44 44 44 44 45 45 45 45 44 44 44 45 45 44 44 44 43 41 41 41 42 42 42 42 42 42 41 40 40 40 39 39 39 39 39 40 41 42 42 42 41 40 40 40 41 41 40 40 41 42 41 41 41 41 43 43 44 43 42 43 44 42 41 43 44 42 42 45 47 46 45 45 45 44 42 42 43 42 43 45 46 47
45 45 45 45 45 45 45 45 45 46 46 46 47 47 46 46 46 46 47 46 46 46 44 43 43 43 43 43 43 44 43 43 42 41 41 41 41 41 41 41 41 41 42 44 45 44 42 42 41 41 42 42 41 42 43 43 44 44 43 43 45 47 46 45 45 45 45 45 45 46 46 44 44 47 49 49 48 47 47 46 43 43 44 43 43 44 44 45
48 47 47 47 47 46 46 46 46 47 47 48 48 48 48 48 48 48 48 48 47 48 46 45 44 44 44 44 46 46 45 44 44 43 43 43 44 44 43 43 44 44 45 47 48 46 44 44 43 43 44 43 43 43 43 45 46 46 46 46 48 50 49 46 46 47 48 49 49 49 48 46 46 49 50 51 52 51 49 48 47 46 46 46 45 45 46 46
51 51 50 49 49 48 48 48 48 48 49 49 49 50 50 50 49 50 51 50 50 50 48 47 46 46 46 47 49 49 46 47 47 45 45 45 46 47 46 46 47 47 48 49 49 48 48 48 46 46 46 46 46 45 45 47 48 47 47 49 51 53 52 48 48 51 51 52 51 49 48 47 48 51 52 53 56 54 52 52 51 50 50 49 48 49 49 48
51 52 53 52 52 51 51 50 50 50 50 50 51 51 51 52 51 52 53 53 53 53 51 50 49 49 49 49 51 51 48 49 49 47 47 47 48 49 49 49 50 50 50 51 51 50 51 51 50 49 48 48 48 47 47 49 49 48 49 51 53 55 54 51 51 53 54 55 52 49 49 49 50 52 53 55 57 57 56 55 54 53 52 52 52 52 52 52
51 52 53 54 54 54 54 54 54 53 53 53 53 53 53 53 53 53 54 55 55 55 52 52 51 51 52 53 53 52 51 51 51 50 49 50 50 52 52 53 53 52 51 52 52 53 53 54 54 52 50 50 50 50 50 51 51 51 51 52 54 56 55 53 52 54 55 55 53 51 51 51 53 54 55 56 57 58 59 57 56 55 54 54 55 55 55 55
48 50 52 53 54 55 56 56 57 57 56 56 56 56 55 55 56 56 56 57 57 56 54 54 53 53 55 56 55 53 52 53 54 53 53 54 54 54 55 55 55 54 52 52 53 55 56 56 55 54 53 52 52 52 53 52 52 53 53 53 55 56 56 54 53 54 55 55 53 53 53 53 55 57 57 58 58 59 60 58 57 57 56 56 57 57 57 57
40 44 47 51 53 55 56 57 58 58 59 59 59 59 59 58 59 58 58 58 58 57 56 56 55 55 57 58 57 55 54 54 56 56 55 56 56 56 56 56 56 55 53 53 54 55 56 57 57 55 54 54 54 54 53 53 53 53 53 54 55 56 56 55 53 54 54 53 53 54 53 53 57 59 58 58 59 59 60 59 58 58 58 58 58 58 58 58
35 37 39 43 47 50 53 56 57 58 59 60 60 61 61 61 62 61 61 61 61 60 59 58 58 59 59 59 60 58 56 56 58 57 57 58 58 57 57 57 56 56 55 55 55 56 57 58 58 56 54 54 54 53 52 51 51 52 52 53 54 54 55 54 53 53 53 53 52 53 54 54 57 60 58 58 60 60 60 60 59 59 59 59 60 60 60 60
33 34 34 37 40 42 46 49 53 56 58 59 60 62 62 62 63 63 63 64 63 62 62 61 61 61 61 61 62 61 59 59 59 59 60 60 60 59 59 57 57 57 57 57 56 56 57 57 56 55 53 53 53 51 49 48 49 51 51 50 52 53 53 53 52 52 52 52 52 53 53 54 57 58 58 59 60 61 60 60 59 60 60 60 61 62 62 62
34 33 32 35 37 37 40 42 44 48 52 56 59 61 62 63 64 64 63 64 64 64 64 62 62 63 63 63 63 63 62 62 61 60 62 62 61 61 60 58 57 58 58 59 58 56 56 56 55 54 52 52 52 50 47 47 49 50 49 49 51 52 53 52 52 52 51 52 54 53 52 54 56 57 58 59 59 60 61 60 59 60 60 60 61 62 62 62
35 33 33 36 36 35 37 38 38 40 43 48 53 56 58 61 62 62 62 63 64 64 64 63 63 63 63 62 63 63 63 62 62 62 62 63 63 61 59 58 58 58 57 59 58 55 55 54 54 53 51 51 53 50 48 49 49 49 48 49 51 52 52 52 52 52 52 53 54 53 52 54 55 55 58 60 59 59 60 60 59 59 58 59 60 60 60 60
36 34 35 38 37 35 36 36 36 38 40 43 44 46 49 54 57 58 60 62 63 63 63 63 63 63 62 62 63 63 62 62 62 62 62 63 62 58 57 58 58 57 57 58 56 54 55 55 54 54 52 52 53 51 49 51 51 50 49 50 51 52 52 52 51 52 54 54 54 54 54 54 54 55 58 60 59 59 60 59 59 58 57 57 57 57 57 57
37 35 36 38 38 37 38 37 35 37 40 39 39 41 43 45 48 51 54 57 58 60 61 62 62 62 62 62 63 63 63 62 62 62 63 64 60 57 57 58 57 57 57 58 56 54 56 56 54 54 53 53 54 52 51 53 54 52 51 52 52 52 52 54 53 54 55 54 55 56 55 56 56 56 58 59 58 59 59 58 58 58 57 57 56 56 55 55
40 38 38 39 39 39 39 38 37 39 40 38 38 40 40 40 41 44 47 50 52 54 56 58 59 59 60 61 61 63 63 62 62 62 64 64 61 58 59 59 58 59 57 57 57 55 56 57 55 54 54 54 55 54 53 55 56 54 53 53 53 53 54 55 55 56 55 54 56 57 56 57 57 54 55 58 58 58 57 57 57 58 57 55 55 55 54 53
42 41 40 40 40 40 40 40 40 42 41 40 40 39 38 39 40 40 41 43 46 48 50 53 53 54 57 57 58 60 60 60 61 62 63 64 61 59 60 61 61 60 58 59 59 57 57 58 56 55 55 55 55 56 55 57 58 56 55 55 54 55 56 57 56 57 56 55 57 57 55 57 57 54 54 55 56 56 56 55 56 56 54 53 53 52 52 51
45 44 43 43 42 41 42 42 43 43 42 43 42 39 39 40 39 40 41 40 41 43 45 46 47 50 52 52 53 56 56 56 58 59 59 61 61 58 59 61 62 60 59 60 61 59 58 59 58 56 56 56 56 57 58 59 59 58 56 56 56 56 56 57 57 57 57 57 57 55 56 59 60 58 56 55 56 57 56 55 55 55 53 52 52 51 52 52
46 46 46 46 45 44 43 43 45 45 43 45 44 41 42 42 40 41 41 39 40 42 43 42 43 45 47 48 49 51 53 53 54 55 55 57 58 55 55 59 60 58 59 60 60 60 59 59 58 58 58 58 58 58 59 60 60 59 58 58 58 58 57 58 58 57 59 59 56 55 58 60 60 60 59 57 57 57 56 55 55 55 54 53 53 52 52 53
48 48 48 49 48 47 46 46 47 46 45 46 45 43 44 44 42 42 43 41 41 43 43 42 42 44 44 45 46 47 49 49 49 50 51 53 55 52 52 56 56 54 57 58 57 58 59 58 59 59 59 59 59 59 60 61 62 61 60 59 60 59 58 59 58 58 60 60 56 56 60 60 58 60 62 61 59 57 56 57 57 56 56 55 55 54 53 54
51 50 50 51 50 49 49 50 50 49 48 48 47 46 46 46 45 44 45 44 43 43 43 43 43 44 44 45 46 45 46 46 45 47 48 50 51 49 49 52 54 52 53 55 55 56 57 58 58 59 60 59 59 60 61 62 63 63 61 60 60 60 59 59 58 58 61 61 58 58 60 58 59 62 64 64 62 58 56 58 60 59 58 57 57 56 55 57
52 52 52 52 52 51 52 52 52 52 51 50 48 48 48 48 47 46 46 47 46 45 46 45 44 44 45 46 45 44 45 46 46 46 47 48 50 48 46 48 50 50 50 53 54 53 54 57 57 58 59 57 58 61 62 63 64 63 60 59 60 61 60 59 59 59 61 62 61 61 58 56 60 64 64 63 63 60 59 61 63 62 61 60 59 57 57 58
53 53 53 53 53 53 53 54 54 55 53 52 51 51 51 51 50 49 49 49 48 47 48 48 46 46 48 47 44 44 46 47 47 47 47 49 49 49 47 47 49 48 48 51 52 50 52 55 55 56 56 54 56 60 61 62 62 59 57 57 59 60 60 59 60 60 61 61 63 62 58 55 59 64 63 62 62 61 62 64 65 65 64 63 61 60 60 60
53 53 54 54 54 54 54 54 55 56 54 54 55 54 53 53 52 51 52 52 50 50 50 51 49 50 51 48 45 47 49 49 48 48 48 49 49 49 49 48 49 49 49 51 51 50 52 53 54 55 54 52 54 59 60 59 56 54 55 57 58 58 58 60 61 61 62 62 62 60 57 57 60 60 59 61 63 63 64 67 67 67 67 66 64 64 64 64
Wind_Direction
247 247 248 247 247 247 247 247 247 247 247 248 248 248 248 249 249 249 249 249 250 250 250 250 251 251 251 251 252 252 253 253 254 254 255 256 256 257 257 258 258 259 260 260 261 261 261 262 262 262 262 262 262 263 263 263 263 263 263 263 263 263 262 263 263 264 264 264 265 265 264 264 264 265 265 265 266 266 266 267 267 267 268 269 269 269 268 268
248 248 248 249 248 248 248 248 248 248 248 248 249 249 249 250 250 250 251 251 251 252 252 252 252 253 253 253 254 254 254 255 255 256 257 257 258 258 259 260 260 260 261 261 262 262 262 262 262 262 262 262 262 262 262 262 262 262 262 262 262 261 262 263 263 262 262 263 264 263 263 263 263 263 264 264 265 266 266 266 266 267 267 267 268 268 268 269
249 249 249 249 249 250 250 250 250 250 250 250 250 250 250 251 251 252 252 252 253 253 254 254 254 254 255 255 255 256 256 257 257 258 258 259 259 260 260 261 261 261 262 262 262 262 262 263 263 263 263 263 263 262 262 262 262 262 262 261 261 261 262 262 261 262 262 263 263 262 262 262 262 263 263 263 264 265 265 265 266 267 267 267 267 267 269 271
249 250 250 250 250 250 251 251 251 251 251 251 251 252 252 252 252 253 253 254 254 255 255 255 256 256 256 257 257 257 257 258 258 259 259 260 260 260 261 261 262 262 262 263 263 263 263 264 264 264 263 263 263 263 263 263 263 262 262 261 261 261 262 261 261 261 261 261 261 261 261 262 262 262 262 263 263 264 264 265 265 266 267 267 267 268 269 271
250 250 250 250 251 251 251 252 252 252 253 253 253 253 253 254 254 254 254 255 255 256 256 256 257 257 258 258 258 258 259 259 259 259 260 260 261 261 261 262 262 263 263 263 264 264 264 264 264 264 264 264 264 264 264 263 263 263 262 262 262 262 262 262 262 261 261 261 261 262 262 262 262 262 262 262 262 263 264 264 265 266 266 267 267 267 267 268
251 251 251 251 251 251 252 252 252 253 253 254 254 255 255 255 255 255 256 256 256 257 257 258 258 258 259 259 259 259 259 260 260 260 261 261 261 261 262 262 262 263 263 263 264 264 264 264 264 264 264 264 264 264 264 264 263 263 263 263 263 263 263 263 262 262 262 262 262 262 262 262 262 262 262 261 261 262 263 263 264 266 266 266 265 265 266 266
251 251 251 252 252 252 252 252 253 253 254 254 255 255 256 256 256 256 257 257 258 258 258 259 259 260 260 260 260 260 260 260 260 261 261 261 262 262 262 262 262 263 263 263 263 263 264 264 264 265 265 265 265 265 264 264 264 264 264 264 264 263 263 263 263 262 262 262 262 262 262 262 262 262 261 261 261 261 262 262 263 264 264 263 263 264 267 266
252 252 252 252 252 252 253 253 253 254 254 255 255 256 256 256 257 257 258 258 259 259 259 260 260 260 260 261 261 261 261 261 261 261 262 262 262 262 262 262 262 263 263 263 263 263 264 264 265 265 265 266 265 265 265 264 264 264 264 264 264 263 263 263 262 262 262 262 262 261 261 261 262 261 261 261 261 261 261 262 262 262 261 261 262 263 264 264
253 252 252 253 253 253 253 253 254 254 255 255 255 256 256 257 257 258 258 259 259 260 260 260 261 261 261 261 261 262 262 261 261 261 261 261 261 261 261 261 262 262 262 262 263 263 264 264 265 265 266 266 266 266 265 265 265 265 265 264 264 264 264 263 263 262 262 262 262 262 262 262 262 261 261 261 261 260 260 261 262 261 260 261 262 262 260 259
253 253 253 253 253 253 254 254 254 255 255 255 256 256 256 257 257 258 258 259 259 259 260 260 260 261 261 261 261 261 261 261 261 260 260 260 260 260 261 261 261 261 262 262 263 264 264 265 266 266 266 266 266 267 267 267 267 266 266 265 265 265 264 264 263 263 262 262 262 262 262 262 261 261 261 261 260 259 259 261 261 258 257 259 259 258 258 259
253 253 253 253 253 254 254 254 255 255 255 256 256 256 257 257 258 258 258 258 259 259 259 259 259 260 260 260 260 260 259 259 259 259 259 259 259 260 260 261 261 261 262 263 264 265 265 266 267 267 267 267 268 268 268 268 268 267 267 266 266 265 264 264 263 263 262 262 262 262 261 261 260 260 260 260 260 259 259 260 259 258 258 258 257 256 258 259
252 252 252 253 253 254 254 255 255 255 256 256 257 257 257 257 257 258 258 258 258 258 257 257 258 258 258 258 258 258 258 258 258 258 259 259 260 260 261 261 262 263 263 264 265 266 266 267 267 268 268 268 269 269 268 268 268 268 267 266 266 265 264 264 263 263 262 262 262 261 261 260 260 260 259 259 260 260 259 258 259 259 259 259 259 259 259 260
251 251 252 252 253 253 254 254 255 255 256 256 256 257 257 257 257 257 256 256 256 256 256 256 256 256 257 257 257 257 258 258 258 259 259 260 261 261 262 262 263 264 264 265 265 266 267 267 267 268 268 268 269 268 268 268 268 267 267 266 265 264 263 264 263 262 262 262 262 261 260 260 259 259 260 260 261 261 260 259 258 258 257 256 256 257 259 261
250 251 251 252 252 253 253 253 254 255 255 255 256 256 256 256 256 255 255 255 255 255 256 256 256 256 257 257 258 258 258 259 259 260 260 261 261 261 262 262 263 264 264 265 265 266 266 267 267 267 268 268 267 268 268 268 267 266 266 265 265 264 262 262 262 261 261 261 261 261 261 261 260 260 261 261 261 261 261 260 259 258 256 252 251 255 258 262
250 251 251 252 252 252 253 253 254 254 255 255 255 256 255 255 255 255 255 256 256 256 256 256 257 257 258 258 259 259 259 260 260 260 260 260 261 261 262 262 263 264 264 264 264 265 265 266 266 267 267 267 267 267 267 267 267 266 266 266 265 264 262 262 261 261 262 262 261 261 262 263 262 262 262 262 263 262 262 261 260 258 254 249 250 255 258 260
250 250 251 252 252 252 252 253 254 254 254 254 255 255 255 255 255 255 255 256 256 257 257 257 258 258 259 260 260 260 260 260 260 259 259 259 260 260 261 261 262 262 262 263 263 263 264 265 266 267 267 267 267 267 267 267 267 267 267 267 267 265 263 262 262 263 263 262 262 263 264 265 264 264 265 264 263 264 263 261 261 259 256 254 255 257 259 261
250 250 251 251 252 252 252 253 253 254 254 254 255 255 255 255 255 255 255 256 257 258 258 259 259 259 260 260 260 260 259 259 258 258 258 258 258 258 259 259 259 260 260 260 261 262 264 265 266 267 267 268 269 268 268 268 268 268 269 268 268 268 266 263 265 267 265 263 263 265 265 266 268 267 267 266 264 265 264 262 261 260 259 259 258 257 256 258
250 250 251 251 252 252 252 253 253 254 254 254 254 255 255 255 256 256 256 257 258 259 259 260 260 260 259 259 259 259 258 257 257 256 255 255 255 256 256 257 257 257 258 259 261 262 264 265 266 266 267 269 269 269 269 269 269 269 269 270 269 271 270 266 268 271 267 265 266 266 266 269 272 271 269 268 266 266 266 264 262 261 261 258 256 255 251 250
249 250 250 251 251 252 252 252 253 254 254 254 254 255 256 256 257 257 258 258 258 259 259 259 260 259 258 258 257 257 256 255 254 253 252 252 252 253 254 255 256 257 258 259 261 262 263 264 264 266 267 268 267 268 268 269 269 269 270 270 270 272 271 269 269 269 267 268 267 266 268 270 272 271 269 269 269 268 268 268 266 264 263 259 256 253 248 248
249 250 250 251 251 251 252 252 253 253 254 254 255 255 256 257 257 258 258 258 258 258 258 258 258 257 257 256 255 254 253 252 251 250 250 251 251 252 254 255 256 257 258 259 260 261 262 262 264 265 266 266 266 267 267 267 268 269 269 269 270 271 270 271 270 266 266 267 266 266 267 268 270 271 269 269 269 269 269 270 270 268 266 263 260 255 250 251
249 250 250 250 251 251 251 252 252 253 254 254 255 256 256 257 257 257 257 257 257 257 256 256 255 255 255 254 253 251 251 250 249 249 250 251 251 252 254 255 256 257 258 259 259 260 261 261 263 264 264 264 265 266 266 266 266 267 267 268 268 268 269 271 269 265 266 267 266 266 264 264 267 268 267 267 268 269 270 270 271 270 269 268 265 262 257 256
248 249 249 250 250 250 251 251 252 253 253 254 254 255 255 256 256 256 256 255 255 255 254 253 253 252 252 252 251 250 249 249 249 249 250 251 252 253 254 256 257 258 259 259 259 260 260 261 263 263 263 264 264 265 265 265 265 265 266 266 265 265 267 268 266 266 266 264 264 265 263 262 264 265 266 267 268 269 269 269 270 270 270 269 269 267 263 258
247 248 248 249 249 250 250 251 251 252 252 252 253 253 253 253 254 254 254 253 253 253 252 251 250 250 250 250 251 250 250 249 249 249 250 251 252 253 255 257 258 259 259 259 260 260 260 261 263 263 263 264 263 263 263 263 264 264 264 263 263 264 265 265 266 267 265 264 265 264 263 263 263 264 264 265 266 266 266 266 267 268 268 268 269 268 266 261
247 247 247 248 248 249 249 250 250 250 250 251 251 250 250 250 250 251 251 250 250 250 250 249 249 249 249 249 250 251 250 250 250 250 250 251 252 253 255 257 258 259 260 261 261 260 261 261 261 262 263 263 262 262 262 262 263 262 262 261 261 263 264 265 266 266 264 264 265 263 263 263 263 263 263 262 263 264 264 263 264 265 265 266 266 267 266 265
247 246 245 246 247 247 248 248 249 249 249 249 249 247 247 247 248 249 249 249 248 248 249 249 248 248 248 249 250 251 251 251 251 251 252 252 252 253 255 256 258 259 261 262 261 261 262 261 260 261 262 262 263 263 264 264 263 263 263 262 262 264 265 265 266 265 264 263 263 263 263 263 264 264 264 263 263 264 264 263 263 263 264 264 264 265 266 266
247 244 244 245 245 246 246 247 248 249 249 248 248 247 246 247 248 249 249 249 249 249 249 249 249 248 248 249 250 251 252 252 252 252 253 253 253 254 254 256 257 259 260 261 262 262 261 261 261 261 261 262 263 263 264 264 263 264 264 264 264 264 265 265 265 264 264 263 263 264 263 263 265 265 263 263 263 263 264 263 263 263 263 264 264 264 265 265
246 243 243 243 244 244 246 247 248 249 248 248 248 247 247 247 248 249 250 250 249 249 249 249 249 249 249 249 250 252 252 252 252 252 253 253 253 254 254 256 257 258 260 260 261 262 261 261 262 262 262 263 263 264 264 263 263 263 263 264 264 263 263 264 263 262 263 263 262 263 264 264 265 264 264 264 264 263 264 264 264 263 263 264 265 265 265 265
246 243 242 243 244 245 246 247 248 248 248 248 247 247 247 247 248 249 249 250 250 250 249 249 250 250 250 250 250 252 252 252 251 251 252 252 252 254 254 255 257 258 259 260 261 262 261 260 261 262 262 263 264 265 265 264 263 262 263 264 264 263 262 261 262 262 261 262 263 263 264 264 264 264 266 266 266 265 265 264 265 265 264 264 266 266 266 266
246 244 243 243 245 246 247 248 248 248 248 248 247 247 247 247 248 249 249 250 250 250 250 249 250 251 251 251 251 252 252 251 251 251 252 252 253 254 255 255 256 257 258 260 261 261 260 260 260 261 262 263 265 266 265 265 265 264 264 265 265 264 263 261 261 261 262 263 263 263 264 263 262 264 265 265 265 266 265 264 265 266 265 265 265 265 265 266
247 246 245 245 246 247 248 248 248 248 248 247 246 246 247 247 248 249 250 250 250 250 250 250 251 251 252 252 252 253 252 252 252 252 252 253 253 254 254 255 256 257 258 260 261 260 260 261 261 262 264 264 265 264 264 265 265 264 263 263 263 263 262 261 260 260 262 263 262 261 261 262 262 263 264 264 263 264 264 264 264 264 265 265 264 264 264 264
246 246 246 246 247 247 247 248 248 248 248 247 246 247 247 247 248 249 250 250 251 251 251 251 252 253 253 254 254 253 253 253 252 252 252 252 253 254 254 255 256 258 260 261 261 261 262 263 263 264 264 264 264 263 263 264 264 263 263 262 261 261 260 261 261 261 261 261 259 259 260 261 261 262 263 264 264 263 264 265 264 263 264 264 264 264 264 263
246 246 246 246 247 247 247 247 247 247 247 247 247 247 248 249 249 251 252 252 252 252 252 252 253 254 254 255 255 254 253 253 252 252 253 253 254 254 255 257 258 260 261 262 263 263 264 263 262 262 262 263 263 263 263 263 263 263 263 262 261 261 261 261 262 261 260 259 259 259 261 262 262 263 264 265 265 264 264 264 264 263 263 264 263 263 263 263
247 247 247 247 247 247 247 247 247 247 247 247 247 248 248 249 250 252 253 253 253 253 253 254 254 254 255 255 256 255 254 254 253 253 254 255 256 256 256 258 259 260 261 263 264 264 264 263 261 261 262 262 262 263 263 262 262 263 263 262 260 261 261 261 260 260 259 259 260 261 263 263 263 263 264 264 264 265 264 263 263 262 262 262 262 262 262 262
248 248 248 248 247 247 247 247 247 247 248 248 248 248 249 250 250 251 253 254 254 253 254 254 254 255 255 254 255 255 255 255 255 254 254 255 257 258 257 257 258 259 261 264 265 265 265 265 263 262 262 263 263 263 262 262 262 262 260 260 260 260 260 259 258 259 260 261 262 262 262 262 260 260 261 261 263 264 263 263 262 262 262 262 262 261 262 262
249 249 249 249 248 248 248 248 247 247 247 248 248 249 250 250 251 251 253 254 255 255 254 254 255 255 255 253 254 254 255 255 255 254 254 255 256 258 258 258 258 259 261 263 265 265 265 265 265 264 263 262 263 262 262 261 262 261 260 260 260 260 260 259 258 259 260 261 263 263 261 261 259 258 259 259 261 262 263 263 264 263 263 262 262 261 261 262
251 250 250 250 249 249 249 249 249 248 248 248 248 249 250 251 251 252 253 254 255 256 255 255 255 255 255 255 254 254 255 257 257 255 255 255 255 256 258 259 260 260 261 262 263 264 265 266 266 266 266 265 264 262 262 261 261 261 260 260 260 260 260 259 258 258 259 260 262 262 261 261 261 259 259 259 260 261 262 263 264 264 263 263 263 262 262 262
254 252 251 251 250 250 249 249 249 249 249 249 249 249 250 250 251 251 253 254 255 255 255 256 255 255 256 257 257 256 255 257 258 258 257 257 257 257 258 260 261 262 262 262 262 264 266 266 267 267 268 267 265 263 262 261 261 260 259 258 258 259 260 260 259 259 259 260 260 260 260 260 260 260 260 260 260 260 262 263 264 264 264 264 264 264 263 263
260 257 255 254 253 252 251 250 250 250 250 250 250 250 250 250 251 251 252 253 254 255 255 256 256 256 256 258 259 258 257 257 258 259 259 259 259 259 259 260 262 263 263 263 263 264 265 266 268 268 267 266 265 264 262 261 261 259 258 258 258 258 259 260 260 260 261 260 260 260 260 260 261 262 262 262 262 262 262 263 264 264 264 265 265 265 264 264
262 261 259 258 257 255 253 252 251 251 251 251 251 251 251 251 251 251 251 252 253 254 254 255 256 257 257 257 258 259 258 258 258 259 260 260 260 260 260 261 262 263 264 264 263 264 264 266 267 267 265 264 263 263 262 261 260 258 257 257 258 258 259 259 259 259 260 261 260 260 261 262 262 263 263 263 263 264 264 264 264 264 265 266 266 266 266 266
262 262 261 261 259 258 257 255 254 253 253 252 252 251 251 251 251 251 252 253 253 254 254 254 255 256 257 257 258 259 259 258 258 259 260 260 260 261 261 262 262 262 263 263 263 262 263 264 264 263 263 263 263 262 261 260 258 258 258 257 258 258 259 259 259 259 259 259 260 259 260 262 262 263 264 263 263 264 264 264 264 265 265 266 266 266 266 267
263 263 263 262 260 259 259 259 257 256 255 254 253 253 253 253 252 252 252 253 253 253 253 253 254 255 256 257 258 258 259 259 259 258 259 260 259 260 262 262 261 261 261 261 261 262 262 261 261 261 261 261 262 261 260 259 259 259 260 259 258 259 259 259 260 261 260 259 260 261 260 261 264 265 265 265 265 265 266 266 266 265 265 265 265 266 266 266
264 263 263 263 262 261 261 260 260 258 256 256 257 257 255 255 254 253 253 253 253 253 253 253 253 254 255 256 257 258 258 259 259 259 259 259 259 260 261 260 260 260 260 260 260 260 260 259 259 260 259 259 261 261 261 260 259 258 259 259 258 259 260 260 260 261 261 261 262 263 262 262 263 264 265 266 266 266 266 267 266 266 265 265 264 265 265 266
263 262 263 264 264 263 262 261 261 260 258 258 258 258 257 256 256 255 254 254 254 254 254 254 253 254 254 254 255 256 257 257 258 259 259 259 259 259 259 259 259 259 258 259 260 259 259 259 258 259 260 259 260 260 260 260 260 258 258 258 258 258 259 260 260 260 261 263 264 263 263 263 262 262 264 266 266 266 266 266 266 265 265 265 265 265 265 265
262 261 261 263 264 264 263 262 261 261 261 260 258 259 259 258 258 256 256 256 255 254 254 254 254 254 254 254 254 255 255 256 257 257 258 259 258 258 258 258 258 257 257 258 259 258 258 259 259 259 259 259 260 260 259 259 260 259 258 258 258 259 259 259 260 261 262 263 264 264 264 264 263 263 263 264 264 265 265 265 265 265 265 265 265 265 266 266
263 261 260 260 262 263 263 263 262 261 262 261 260 261 261 259 258 258 257 257 257 256 256 256 255 255 254 254 254 255 255 255 256 256 257 258 257 256 257 257 257 257 257 257 257 256 257 258 258 258 258 258 259 260 259 258 259 259 259 259 259 259 260 261 262 263 264 264 264 265 266 265 264 262 260 260 261 262 263 263 264 265 266 266 265 265 266 266
261 262 260 259 259 260 261 262 262 261 261 262 261 261 261 260 260 259 258 257 258 258 257 257 256 256 256 255 255 255 255 255 256 256 256 258 257 256 256 257 257 257 257 256 257 256 256 257 257 257 257 258 258 258 259 259 260 261 260 260 260 260 262 263 264 265 266 265 265 267 267 265 264 263 262 262 263 263 263 263 263 264 265 265 265 266 266 266
257 259 260 260 258 258 258 260 261 261 261 261 261 261 260 260 260 260 260 259 258 258 258 257 257 257 257 257 256 256 257 256 256 257 257 258 258 256 256 257 256 256 256 256 256 256 256 256 256 256 256 256 257 258 259 260 260 261 261 261 262 262 263 264 265 266 266 265 266 266 265 265 267 268 267 266 265 266 266 265 264 264 264 264 265 265 266 267
257 256 257 258 258 257 257 257 258 259 259 260 260 260 260 260 260 260 260 260 258 258 259 258 258 258 258 259 258 258 259 258 258 259 259 259 259 257 256 257 258 256 256 256 256 256 256 255 255 256 256 256 257 257 258 260 260 260 261 262 263 263 264 265 266 266 266 265 264 263 264 266 268 269 269 269 268 267 268 268 267 266 265 265 265 266 266 266
258 257 256 256 257 257 256 256 256 256 257 258 259 259 259 259 259 259 259 260 259 259 259 258 258 258 258 259 259 259 260 261 261 261 261 261 261 259 257 258 259 258 258 258 257 256 257 257 256 256 256 256 256 257 257 259 259 260 260 261 263 264 264 264 265 265 265 265 264 263 264 267 268 268 268 269 270 269 268 268 267 266 266 266 266 266 266 266
259 258 257 257 256 256 255 255 255 255 255 256 257 257 258 258 258 258 258 259 259 259 259 259 259 259 259 258 259 260 261 262 261 261 262 262 263 262 260 260 260 260 259 260 259 258 258 258 258 257 257 256 257 257 257 258 258 260 261 261 262 263 263 263 262 261 262 263 264 264 264 265 266 266 266 268 270 271 270 269 268 267 267 266 265 265 265 265
259 259 258 258 257 256 255 255 255 255 254 255 255 255 256 257 257 257 257 258 258 259 259 260 259 259 259 259 261 261 261 260 261 261 261 261 262 263 263 262 262 261 260 259 260 260 259 259 259 259 259 258 258 258 258 258 259 260 262 261 261 261 261 262 261 261 261 261 262 263 264 263 262 263 265 267 268 269 269 269 269 269 268 268 267 267 266 265
258 258 258 258 258 257 256 256 255 256 255 255 254 254 255 256 256 256 257 257 258 258 258 259 259 259 259 260 261 261 260 260 260 260 260 261 262 262 262 262 262 262 261 260 260 261 261 261 261 261 260 259 259 260 259 259 260 262 261 260 260 260 260 261 261 262 262 261 261 263 263 262 260 260 263 265 267 267 267 268 269 270 270 270 270 269 268 266